Flag for Italy Weather past 2 weeks in Cagliari, Italy

Now
70 °F

Sunny.


Feels Like: 70 °F
Forecast: 72 / 87 °F
Wind: 6 mph from Northwest

Location: Cagliari / Elmas

Current Time: Sep 3, 2015 at 9:06:33 AM

Latest Report: Sep 3, 2015 at 8:20 AM


Visibility: 10 mi

Pressure: 29.92 "Hg

Humidity: 78%

Dew point: 63 °F

Location of CagliariLocation

Historic Weather in Cagliari — Graph

°F

Cagliari temperature yesterday

Maximum temperature yesterday: 93 °F (at 1:50 PM)
Minimum temperature yesterday: 70 °F (at 6:50 AM)
Average temperature yesterday: 81 °F

Past Weeks' High & Low Weather Summary

 TemperatureHumidityPressure
High93 °F (Aug 24, 2:20 PM)94% (Aug 24, 1:50 AM)30.12 "Hg (Aug 24, 1:50 AM)
Low64 °F (Aug 20, 4:50 AM)24% (Aug 19, 2:20 PM)29.86 "Hg (Aug 23, 4:50 PM)
Average79 °F68%30.01 "Hg
* Reported Aug 19 7:20 AM — Sep 3 7:50 AM, Cagliari, Weather by CustomWeather, © 2015

Note: Actual official high and low records may vary slightly from our data, if they occured in-between our weather recording intervals... More about our weather records

Advertising

Cagliari weather history for previous 24 hours

 ConditionsComfort  
Time TempWeatherWind HumidityBarometerVisibility
7:50 AM
Thu, Sep 3
68 °FClear.3 mph83%29.92 "Hg10 mi
7:20 AM66 °FClear.6 mph83%29.92 "Hg10 mi
6:50 AM68 °FClear.6 mph83%29.89 "Hg10 mi
6:20 AM68 °FClear.5 mph78%29.89 "Hg10 mi
5:50 AM68 °FClear.5 mph83%29.89 "Hg10 mi
5:20 AM68 °FClear.5 mph83%29.92 "Hg10 mi
4:50 AM70 °FClear.5 mph83%29.92 "Hg10 mi
4:20 AM70 °FClear.5 mph83%29.92 "Hg10 mi
3:50 AM70 °FClear.5 mph83%29.92 "Hg10 mi
3:20 AM70 °FClear.3 mph83%29.92 "Hg10 mi
2:50 AM72 °FClear.5 mph78%29.92 "Hg10 mi
2:20 AM73 °FPassing clouds.6 mph78%29.92 "HgN/A
1:50 AM73 °FClear.6 mph78%29.92 "Hg10 mi
1:20 AM73 °FClear.7 mph78%29.92 "Hg10 mi
12:50 AM73 °FClear.7 mph78%29.92 "Hg10 mi
12:20 AM75 °FClear.6 mph74%29.92 "Hg10 mi
11:50 PM
Wed, Sep 2
75 °FClear.10 mph74%29.92 "Hg10 mi
11:20 PM77 °FPassing clouds.8 mph65%29.95 "HgN/A
10:50 PM77 °FClear.12 mph61%29.95 "Hg10 mi
10:20 PM79 °FClear.14 mph58%29.95 "Hg10 mi
9:50 PM79 °FClear.12 mph54%29.95 "Hg10 mi
9:20 PM81 °FClear.13 mph51%29.92 "Hg10 mi
8:50 PM81 °FPassing clouds.9 mph51%29.92 "HgN/A
8:20 PM81 °FSunny.9 mph51%29.92 "Hg10 mi
7:50 PM82 °FSunny.12 mph45%29.89 "Hg10 mi
7:20 PM84 °FSunny.15 mph43%29.89 "Hg10 mi
6:50 PM88 °FSunny.13 mph38%29.86 "Hg10 mi
6:20 PM90 °FPassing clouds.14 mph36%29.86 "HgN/A
5:50 PM91 °FSunny.15 mph32%29.86 "Hg10 mi
5:20 PM93 °FPassing clouds.14 mph32%29.86 "HgN/A
4:50 PM91 °FPassing clouds.6 mph46%29.86 "HgN/A
4:20 PM90 °FPassing clouds.6 mph52%29.86 "HgN/A
3:50 PM88 °FPassing clouds.12 mph59%29.89 "HgN/A
3:20 PM88 °FPassing clouds.15 mph59%29.89 "HgN/A
2:50 PM88 °FPassing clouds.13 mph55%29.89 "HgN/A
2:20 PM88 °FPassing clouds.12 mph55%29.89 "HgN/A
1:50 PM93 °FPassing clouds.5 mph34%29.89 "HgN/A
1:20 PM91 °FPassing clouds.7 mph38%29.89 "HgN/A
12:50 PM91 °FPassing clouds.9 mph44%29.92 "HgN/A
12:20 PM88 °FPassing clouds.9 mph49%29.92 "HgN/A
11:50 AM86 °FPassing clouds.9 mph55%29.92 "HgN/A
11:20 AM86 °FPassing clouds.12 mph59%29.92 "HgN/A
10:50 AM84 °FSunny.10 mph66%29.92 "Hg10 mi
10:20 AM82 °FPassing clouds.12 mph70%29.92 "HgN/A
9:50 AM81 °FPassing clouds.12 mph70%29.92 "HgN/A
9:20 AM79 °FPassing clouds.10 mph74%29.92 "HgN/A
Weather by CustomWeather, © 2015

See weather overviewHow to use our weather pages